General Aviation Weather

Text Reports

Enter one or more of the following location identifiers separated by a space:

Zip Code, Four-Character ICAO or Three-Character IATA airport codes.

METAR - Aviation Routine Weather Report
KOKM - Okmulgee, Oklahoma
Updated at 6:55 PM GMT on March 26, 2015 (1:55 PM CDT):
METAR KOKM 261855Z AUTO 34012G19KT 10SM CLR 12/01 A3016 RMK AO2 T01230006
TAF - Terminal Area Forecast
KOKM - Okmulgee, Oklahoma
Updated at 6:55 PM GMT on March 26, 2015 (1:55 PM CDT):
No TAF is currently available for this location.
Decoded:
No decoded TAF is available.
PIREP - Pilot Weather Report
KOKM - Okmulgee, Oklahoma
Updated at 6:55 PM GMT on March 26, 2015 (1:55 PM CDT):
No PIREP is currently available for this location.
AIRMET - Airmens Meteorological Information
KOKM - Okmulgee, Oklahoma
Updated at 6:55 PM GMT on March 26, 2015 (1:55 PM CDT):
No AIRMET is currently available for this location.
SIGMET - Significant Meteorological Information
KOKM - Okmulgee, Oklahoma
Updated at 6:55 PM GMT on March 26, 2015 (1:55 PM CDT):
No SIGMET is currently available for this location.
NOTAM - Notice to Airmen
KOKM - Okmulgee, Oklahoma
Updated at 6:55 PM GMT on March 26, 2015 (1:55 PM CDT):
No NOTAM is currently available for this location.
Forecast Area
KOKM - Okmulgee, Oklahoma
Updated at 6:55 PM GMT on March 26, 2015 (1:55 PM CDT):
No NOTAM is currently available for this location.
Aviation Weather Maps